KUIPER-00200

Last updated on Sun Mar 15 2026 00:02:06 GMT+0000 (Coordinated Universal Time)

1 67772U 26030J 26073.61728048 .00042877 00000+0 11571-2 0 9998 2 67772 51.8809 195.1070 0001145 310.1223 49.9664 15.37353528 5856
UTC large
Height (km)
Speed (km/s)
/
Latitude / Longitude
Inclination (degrees)
Orbital Period (minutes)
Azimuth
Elevation
Range (km)
Doppler Factor

Next 0 passes for location: London (51.5072 / 0.1276)

Sorry there are no passes over London.